Theta_e
320 320 320 320 321 321 320 318 317 316 316 316 316 317 317 317 318 328 331 330 332 333 347 353 352 349 352 352 352 353 357 353 341 343 345 344 344 345 345 342 341 342 343 343 345
321 321 320 319 320 321 320 319 317 316 316 316 316 317 317 317 320 330 331 330 329 344 351 342 342 346 342 341 348 348 353 355 335 341 344 344 344 345 345 343 342 342 343 344 344
321 321 320 319 319 320 320 319 318 317 316 316 316 317 317 318 324 332 336 332 343 348 346 342 343 342 346 345 349 350 349 336 338 343 344 344 344 345 345 344 342 342 342 343 342
321 321 321 320 319 320 320 319 318 317 316 316 316 317 317 318 331 330 331 335 346 352 345 341 343 344 348 349 348 353 346 340 339 343 342 343 343 344 345 342 343 342 342 343 343
319 321 321 320 319 320 320 319 318 317 316 316 316 317 317 320 327 332 329 345 347 348 352 346 343 342 348 347 347 348 344 340 339 338 340 340 342 343 344 343 342 342 343 343 345
317 319 321 321 319 320 320 319 318 317 316 315 316 316 317 321 333 333 341 347 345 349 348 351 348 345 349 347 347 346 343 341 341 340 339 339 339 346 345 344 343 343 344 344 345
315 317 321 321 320 320 320 319 318 316 314 314 315 316 317 323 332 334 337 346 347 347 347 346 350 347 347 348 345 346 344 341 343 341 339 340 340 348 346 344 344 344 344 345 345
314 315 320 322 321 320 317 317 317 315 315 315 315 316 319 327 328 331 333 341 344 345 345 344 345 345 347 345 344 348 343 343 342 342 342 339 341 345 346 345 344 344 344 344 343
312 313 317 322 321 318 316 316 316 315 314 314 315 320 320 328 330 331 332 333 342 343 344 344 342 348 347 343 347 347 349 346 345 345 344 340 340 340 344 344 343 344 344 344 343
311 312 315 321 321 320 319 316 316 315 314 314 317 325 323 327 330 329 330 332 336 340 340 342 345 342 343 343 347 347 349 350 347 347 347 347 346 339 342 343 343 344 344 344 344
311 312 313 320 322 322 321 318 318 319 318 318 320 323 324 326 330 329 330 332 337 338 336 339 342 345 342 342 344 345 347 352 349 347 351 348 347 347 343 342 342 343 345 345 345
311 312 313 317 322 322 322 326 332 331 328 329 326 320 323 325 327 331 329 331 336 336 338 339 341 341 343 343 344 345 347 352 350 348 347 346 352 349 346 343 342 343 344 345 344
311 312 313 316 323 322 323 328 328 326 326 329 329 330 324 326 325 330 330 331 335 337 338 343 343 343 343 343 344 344 344 345 349 348 345 345 346 345 343 345 344 342 344 345 344
312 312 313 314 321 323 324 328 327 327 322 326 328 329 328 324 326 327 329 329 332 335 335 333 333 334 343 336 337 336 340 345 347 347 348 344 348 347 347 346 341 340 343 344 344
312 312 312 315 324 325 329 328 328 327 330 331 324 327 325 325 326 326 327 329 327 328 327 327 327 328 330 332 332 332 334 334 333 341 337 347 343 345 344 349 348 344 340 342 344
312 312 313 314 323 326 328 328 329 325 331 329 326 323 322 324 325 327 327 329 329 326 325 324 327 326 328 328 328 329 329 326 327 328 331 335 341 346 346 347 347 347 344 341 341
312 312 313 314 322 327 327 327 325 328 329 327 324 321 322 324 325 325 325 325 323 325 322 322 324 324 326 327 323 326 323 326 333 333 335 333 340 342 342 341 347 347 347 346 342
312 313 314 314 325 326 326 322 331 332 333 328 324 322 323 323 323 325 325 324 323 322 321 324 324 325 325 324 324 326 324 325 332 334 332 332 340 340 342 340 343 342 342 342 345
313 317 315 315 323 325 327 325 328 331 332 331 324 324 323 324 325 325 324 323 324 321 323 320 324 325 324 324 322 324 324 322 325 324 327 329 332 338 339 340 342 340 343 341 346
321 323 324 314 324 325 323 325 327 331 331 331 332 325 327 327 325 324 323 324 326 323 321 323 324 325 325 325 325 323 322 321 318 329 331 333 333 335 340 338 338 338 343 343 345
324 329 328 316 325 324 324 324 329 332 331 331 331 331 331 333 330 324 325 327 326 326 322 321 322 325 326 325 322 326 322 318 318 320 324 331 332 331 335 336 337 339 351 351 346
319 326 328 319 322 322 323 327 330 330 331 328 330 329 330 331 333 332 329 331 333 325 323 327 320 324 327 326 326 325 323 318 319 322 322 325 329 330 333 337 340 346 351 349 350
317 328 327 322 319 318 320 324 327 327 327 327 328 328 329 330 332 333 333 331 333 331 331 329 325 326 327 324 327 329 329 327 319 319 326 329 332 335 338 339 347 349 349 348 347
322 327 330 322 323 321 324 323 328 330 327 328 327 327 326 328 327 330 333 333 333 332 332 329 323 326 327 329 328 331 331 331 325 325 326 326 337 336 339 345 347 348 348 346 345
326 324 324 323 324 323 322 325 327 329 328 327 326 325 327 327 329 330 328 329 332 331 331 325 328 329 328 329 331 332 333 332 331 332 329 331 335 330 338 344 345 346 343 342 342
321 322 322 323 325 320 324 327 328 328 325 327 327 326 323 325 326 326 323 325 329 326 327 327 331 333 333 329 330 334 330 328 327 333 330 330 336 334 340 342 340 340 339 338 337
318 320 323 324 320 321 320 325 323 324 324 324 324 323 322 323 323 323 322 323 322 325 323 328 327 329 335 326 330 333 329 326 335 335 333 339 337 338 338 338 338 338 338 337 336
Wind_Speed
9 9 8 6 4 4 4 4 4 4 4 3 3 4 5 5 7 6 1 5 5 4 4 1 9 11 27 18 17 8 2 3 5 10 3 16 8 19 21 29 22 11 29 30 32
9 9 8 6 5 3 3 4 5 5 3 3 3 4 5 6 8 8 5 3 2 3 2 5 5 11 9 5 2 5 2 4 6 8 7 14 19 21 18 23 16 28 28 30 29
9 9 8 7 4 4 3 3 5 5 4 3 3 3 4 5 6 2 8 4 5 8 4 5 4 12 9 14 1 5 4 6 9 21 26 18 24 28 26 12 32 32 35 33 28
9 9 8 7 5 3 3 3 4 5 4 3 3 3 4 4 2 3 6 8 5 6 4 5 3 8 4 4 3 4 11 9 18 24 22 18 23 12 25 18 38 40 39 33 30
9 9 8 7 5 4 3 3 4 4 4 3 3 3 4 3 3 2 9 9 7 8 3 0 2 6 1 4 6 5 11 17 26 31 29 22 18 14 20 33 37 38 36 32 30
9 9 8 7 5 4 3 2 3 4 4 3 3 4 3 3 2 2 9 12 6 7 6 7 5 3 3 6 6 13 18 4 23 19 19 14 9 17 26 36 36 37 35 32 30
10 8 7 7 6 5 3 2 3 3 3 3 4 5 7 8 3 1 4 9 8 8 10 11 13 4 1 5 11 16 7 5 9 5 8 22 6 14 34 37 34 33 32 29 30
10 9 7 6 6 5 4 3 3 3 3 3 3 5 7 3 11 10 7 11 9 8 10 12 13 13 1 4 3 5 5 3 3 7 6 11 4 17 32 32 28 32 31 29 29
11 9 7 6 5 4 3 2 3 3 3 3 3 4 7 6 15 11 11 9 9 12 18 17 11 6 3 2 4 4 4 2 9 2 5 4 3 15 30 31 27 29 29 29 29
11 9 7 6 5 3 3 3 3 3 4 4 6 4 11 13 13 12 17 12 13 14 17 21 5 3 2 2 4 6 3 4 4 6 12 9 2 8 28 29 28 31 29 28 30
12 10 7 6 5 3 4 2 1 2 7 10 5 10 9 6 7 10 12 11 13 14 3 3 4 8 13 13 5 7 3 4 14 6 5 9 8 7 8 19 22 28 30 28 27
13 10 7 6 5 5 5 4 1 3 9 12 20 23 20 12 6 11 12 13 9 6 3 4 7 14 16 11 7 9 7 11 13 5 4 5 7 8 8 8 26 30 32 32 28
13 10 7 5 5 6 8 4 7 13 4 13 18 18 19 5 14 12 16 20 5 5 7 4 12 10 8 9 10 10 13 9 6 10 6 4 7 1 4 11 19 28 36 33 32
14 10 7 5 4 7 7 3 11 9 4 6 6 12 20 11 5 16 16 15 5 10 10 8 7 9 9 8 6 5 15 16 9 6 5 3 3 6 4 5 10 21 28 37 38
15 10 8 7 4 10 2 4 5 1 4 4 5 2 11 14 2 9 16 21 6 8 4 12 7 5 6 6 4 7 2 1 2 6 4 4 2 3 9 7 6 12 26 35 41
16 11 9 9 13 6 2 2 3 5 5 3 8 5 7 12 11 4 17 19 8 3 2 10 6 4 4 4 1 3 3 8 6 3 3 8 7 4 8 15 6 15 31 36 40
16 13 10 12 11 9 4 2 5 3 5 4 5 6 5 6 4 6 6 5 5 2 6 9 8 8 5 4 7 8 7 4 5 4 6 3 5 7 14 9 12 23 28 31 38
15 12 11 12 14 9 6 5 2 5 7 4 5 5 8 7 6 7 6 5 5 5 2 1 9 4 4 8 7 2 7 5 3 2 6 5 7 5 14 16 23 26 16 18 28
12 9 9 10 18 10 5 3 7 6 2 7 5 4 4 6 6 6 9 8 9 10 8 6 7 7 10 5 10 3 2 7 4 2 2 3 3 8 9 3 7 13 22 32 34
10 6 2 14 19 10 4 6 5 3 5 2 2 4 1 5 3 5 9 8 7 12 11 5 3 3 3 7 1 5 4 3 4 2 4 5 4 6 8 9 7 13 10 13 36
5 4 11 17 18 4 3 7 6 12 12 1 2 1 3 1 3 5 10 10 6 7 16 7 4 7 4 2 7 3 2 6 5 4 4 1 6 5 7 11 11 13 24 27 21
2 2 16 20 5 3 3 5 4 9 22 7 2 1 1 2 2 6 6 2 13 8 10 3 6 3 7 5 4 4 2 5 5 4 2 4 5 7 6 7 24 22 29 35 35
10 4 22 23 3 3 6 6 7 11 6 5 3 5 3 4 3 4 6 4 16 6 4 4 2 3 9 7 7 6 4 3 3 3 2 5 2 5 12 15 19 24 28 34 34
3 3 3 21 7 5 3 7 5 16 8 5 4 5 6 6 6 5 8 7 9 6 6 6 3 6 6 5 3 4 7 5 5 3 3 5 7 6 6 15 17 22 30 31 32
6 2 5 3 3 5 4 5 7 4 3 5 5 7 2 4 5 5 6 8 12 20 5 4 1 2 3 3 4 1 5 8 6 3 4 1 14 11 14 16 20 29 28 28 28
6 6 9 6 11 6 1 1 4 3 7 4 8 11 13 6 3 1 5 5 2 7 7 7 0 2 4 7 6 3 8 7 7 8 7 5 1 4 19 22 19 19 25 25 23
10 4 3 7 7 5 4 3 5 3 14 13 11 7 9 4 7 9 9 11 6 1 3 3 3 3 2 4 4 4 5 5 7 12 2 4 2 8 12 17 17 23 24 22 20
Wind_Direction
8 7 2 354 337 305 287 274 266 266 277 285 288 291 296 300 291 287 280 75 87 97 145 242 168 138 192 206 217 193 210 282 194 173 163 152 152 187 153 140 152 197 157 150 156
3 2 359 357 343 318 290 281 269 265 266 276 282 288 300 309 299 278 171 120 333 124 162 182 191 124 153 138 187 164 277 254 191 135 150 174 163 142 134 147 126 125 151 158 157
359 357 355 354 350 328 298 271 270 268 266 267 276 281 302 318 317 51 199 167 152 141 73 6 28 67 39 352 25 225 261 172 133 143 152 154 142 157 149 162 150 151 159 161 164
355 353 350 349 346 334 296 281 265 265 269 265 264 282 297 315 162 14 163 150 161 152 77 107 61 54 70 312 274 290 299 154 142 155 155 160 154 153 166 173 161 159 162 165 172
352 348 345 343 337 329 304 283 268 264 261 252 256 269 294 289 280 323 158 169 171 196 169 12 318 80 345 257 298 209 336 147 153 156 166 155 162 147 149 152 158 160 164 171 176
351 345 339 335 330 319 304 272 268 263 261 251 242 256 259 286 70 15 173 176 181 186 242 231 243 223 233 327 50 311 340 231 159 164 161 137 159 125 153 154 158 163 171 177 185
346 344 337 327 323 316 294 264 250 253 259 255 254 259 250 223 153 190 216 192 192 198 255 288 240 242 213 124 316 327 3 12 35 69 144 127 78 144 156 158 162 172 177 185 193
343 339 334 326 317 310 292 254 229 228 240 243 266 281 255 148 235 236 220 201 187 239 274 292 272 260 266 139 307 352 70 38 286 2 201 108 202 151 160 160 168 177 184 194 200
343 336 329 319 306 296 270 242 228 213 211 220 227 258 259 215 215 230 228 241 200 232 256 269 210 181 95 65 16 30 258 148 327 309 141 97 143 167 167 164 170 181 194 200 203
342 334 326 314 297 267 253 229 216 223 215 203 220 288 239 227 217 225 227 239 243 256 266 248 205 83 73 116 200 237 326 323 228 352 112 76 94 139 175 172 178 185 201 210 207
339 332 322 306 288 256 230 214 255 256 251 221 225 227 298 352 189 223 193 206 239 259 241 258 145 222 219 200 165 181 174 29 300 255 93 163 161 201 167 186 185 192 198 213 207
336 328 318 297 275 250 219 211 303 313 297 281 255 256 269 275 285 197 197 204 216 246 281 351 232 231 235 223 177 155 197 191 287 240 104 243 191 190 175 209 195 195 203 206 200
335 325 313 287 262 244 224 198 327 323 282 286 244 246 247 265 230 208 205 207 186 249 267 213 263 286 225 213 172 188 205 212 172 162 51 129 325 274 255 254 232 203 206 203 199
334 322 306 276 250 218 234 336 292 308 35 274 191 239 235 235 272 232 227 202 189 224 249 240 269 269 201 236 148 225 218 225 177 159 216 169 248 257 216 209 192 213 213 209 205
329 313 296 229 207 193 81 17 318 170 5 224 179 157 181 186 178 207 224 203 231 251 61 271 312 329 284 241 138 222 321 306 360 163 102 219 128 246 158 193 179 192 212 216 213
323 305 281 237 221 198 218 356 43 47 260 251 160 168 117 209 236 307 194 202 230 253 283 253 256 223 234 274 140 276 47 30 35 93 334 191 155 265 193 192 169 212 210 215 217
317 298 265 230 204 203 213 30 53 153 310 209 171 134 174 187 236 175 145 178 175 36 313 328 295 294 232 290 355 56 52 348 348 9 232 132 102 214 212 189 194 208 206 215 214
315 296 257 221 173 192 199 62 188 244 266 235 134 110 167 183 233 192 141 205 249 121 98 254 320 206 206 176 183 136 139 151 250 243 266 139 194 248 207 182 202 226 244 230 209
328 300 270 195 180 175 152 102 211 222 311 344 48 120 245 243 192 141 191 205 203 168 170 181 268 302 172 149 127 261 166 192 142 236 10 274 317 47 102 176 230 234 261 265 224
342 314 256 172 172 159 89 222 240 248 344 331 130 140 184 298 175 169 182 213 218 186 162 218 292 310 351 71 335 155 177 32 11 5 354 317 313 197 165 197 215 230 87 188 209
352 337 150 159 165 145 179 228 278 291 334 97 141 315 190 202 229 223 206 252 210 216 171 171 105 294 53 165 199 334 352 53 116 146 173 240 278 257 166 160 143 81 72 86 137
358 26 165 155 124 190 215 214 314 284 303 289 139 201 78 234 34 355 174 305 334 157 147 162 152 150 239 298 275 172 359 125 126 257 214 155 299 357 112 138 107 91 83 89 94
339 296 180 176 143 262 292 289 271 275 241 274 79 80 16 32 48 27 344 28 49 61 146 187 27 40 347 359 3 53 345 303 104 93 179 115 253 5 89 65 80 96 95 91 91
353 14 186 212 227 142 270 277 265 298 211 203 133 87 45 7 32 34 355 336 29 48 63 77 96 138 182 194 199 339 349 10 110 43 187 172 141 231 120 112 102 93 90 88 86
15 14 9 306 330 324 227 261 281 310 69 72 45 31 92 39 29 30 339 348 9 8 18 83 120 108 148 252 1 348 357 337 13 330 83 33 160 205 165 137 129 119 108 95 87
26 11 346 295 300 326 81 262 338 350 19 20 96 66 65 95 132 308 357 36 72 337 19 355 132 84 20 11 26 22 51 33 20 3 74 223 27 353 86 99 91 86 93 88 80
18 356 326 311 343 21 300 357 10 90 32 70 113 83 56 9 332 304 282 281 248 314 352 52 108 77 250 332 74 41 348 76 76 22 235 166 135 98 72 74 76 85 80 77 69